CDT,Max TemperatureF,Mean TemperatureF,Min TemperatureF,Max Dew PointF,MeanDew PointF,Min DewpointF,Max Humidity, Mean Humidity, Min Humidity, Max Sea Level PressureIn, Mean Sea Level PressureIn, Min Sea Level PressureIn, Max VisibilityMiles, Mean VisibilityMiles, Min VisibilityMiles, Max Wind SpeedMPH, Mean Wind SpeedMPH, Max Gust SpeedMPH,PrecipitationIn, CloudCover, Events, WindDirDegrees
2013-7-1,89,79,68,69,66,64,90,68,46,29.91,29.83,29.77,10,10,6,13,3,15,0.08,2,Rain,240
2013-7-2,90,79,68,69,67,62,90,66,41,30.03,29.96,29.90,10,8,0,14,2,17,0.00,2,Fog,265
2013-7-3,81,77,72,72,70,69,93,81,69,30.09,30.05,30.00,10,9,3,16,5,22,T,6,Rain,104
2013-7-4,77,75,72,72,70,68,93,85,76,30.07,30.03,29.98,10,9,2,17,9,24,0.78,7,Rain,111
2013-7-5,79,76,73,72,70,69,93,84,74,30.13,30.08,30.04,10,9,5,13,6,17,0.02,6,Rain,128
2013-7-6,78,76,73,74,72,70,94,88,82,30.11,30.08,30.04,10,7,1,13,3,15,1.17,7,Rain,99
2013-7-7,83,79,74,74,72,71,93,84,74,30.15,30.12,30.08,10,9,2,16,3,21,0.14,6,Rain,89
2013-7-8,89,81,72,74,71,70,93,76,59,30.19,30.15,30.12,10,7,0,17,4,23,T,6,Fog,117
2013-7-9,92,81,70,75,72,68,93,75,56,30.20,30.14,30.08,10,10,10,13,2,16,0.00,4,,227
2013-7-10,93,84,74,76,73,70,94,75,56,30.10,30.04,29.97,10,8,1,17,3,23,0.01,4,Rain-Thunderstorm,230
2013-7-11,83,79,74,73,72,71,94,82,69,30.00,29.96,29.88,10,6,0,10,3,14,0.46,6,Rain-Thunderstorm,241
2013-7-12,90,81,72,75,72,70,94,77,59,29.93,29.90,29.85,10,8,0,21,3,25,0.02,4,Fog-Rain-Thunderstorm,281
2013-7-13,88,80,71,73,70,64,93,76,59,30.01,29.94,29.89,10,8,2,17,6,25,T,2,Rain-Thunderstorm,82
2013-7-14,88,80,72,74,71,68,93,75,57,30.09,30.03,29.98,10,10,2,23,7,30,0.11,6,Rain-Thunderstorm,89
2013-7-15,90,82,74,73,71,68,88,69,50,30.20,30.15,30.09,10,10,8,30,9,36,0.04,5,Rain,88
2013-7-16,92,83,73,72,70,68,93,70,47,30.26,30.21,30.17,10,10,10,17,8,22,0.00,4,,86
2013-7-17,95,84,73,74,71,68,93,69,44,30.27,30.20,30.12,10,10,6,28,3,35,0.03,1,,31
2013-7-18,92,82,72,75,71,68,93,71,49,30.19,30.11,30.03,10,10,10,10,4,15,0.02,3,Rain-Thunderstorm,92
2013-7-19,93,83,72,73,70,66,93,69,44,30.11,30.05,29.97,10,10,9,12,2,14,0.00,1,,193
2013-7-20,88,81,73,75,72,70,93,77,61,30.05,30.00,29.94,10,10,8,14,3,20,T,3,Rain,170
2013-7-21,89,81,73,75,72,68,94,80,65,30.04,30.01,29.98,10,10,9,3,3,6,0.03,4,Rain-Thunderstorm,229
2013-7-22,89,81,72,76,71,69,93,76,59,30.06,30.01,29.95,10,8,0,28,5,38,3.70,6,Fog-Rain-Thunderstorm,233
2013-7-23,89,80,71,76,71,68,94,81,68,30.03,29.95,29.88,10,8,1,35,5,43,0.76,6,Rain-Thunderstorm,239
2013-7-24,87,79,70,76,71,67,93,82,70,29.93,29.89,29.85,10,8,1,21,4,26,0.89,5,Rain-Thunderstorm,265
2013-7-25,90,81,71,73,71,69,93,75,56,30.01,29.94,29.86,10,9,5,14,5,17,0.00,3,,296
2013-7-26,91,80,68,71,68,66,93,70,47,30.04,30.01,29.96,10,9,2,9,3,13,0.00,0,,262
2013-7-27,83,77,71,73,70,68,93,79,65,29.98,29.95,29.92,10,9,4,12,2,15,T,2,Rain,170
2013-7-28,91,81,70,74,71,68,93,74,55,30.02,29.97,29.93,10,9,7,12,4,14,0.00,5,,82
2013-7-29,93,83,72,74,71,68,93,70,46,30.14,30.08,30.01,10,9,1,10,4,14,0.00,2,,30
2013-7-30,94,83,72,77,72,66,91,70,49,30.18,30.12,30.08,10,8,0,16,3,22,1.07,3,Fog-Rain-Thunderstorm,109
2013-7-31,91,83,75,76,73,71,94,77,60,30.09,30.05,30.00,10,10,5,15,4,18,0.03,2,Rain,158